RH
14 14 13 11 9 8 10 8 7 6 5 4 4 4 4 4 5 5 4 3 3 3 3 3 5 13 23 22 47 41 55 90 99 97 30 46 21 17 22 25 31 33 31 45 58
7 12 14 12 10 8 10 10 8 6 6 5 4 4 4 4 4 4 5 4 3 3 3 4 4 6 14 17 25 62 83 96 88 97 29 53 28 17 20 19 25 21 27 48 58
2 3 5 5 7 9 12 11 10 8 5 5 5 4 4 4 4 4 5 6 5 3 3 3 3 4 7 11 37 51 79 98 100 75 36 45 33 20 20 13 14 19 19 43 58
3 8 13 15 14 13 12 11 9 7 5 4 4 4 4 4 5 5 5 6 6 5 3 3 3 4 7 36 63 38 53 76 100 99 47 53 36 23 19 15 8 10 14 32 46
4 7 9 10 10 10 9 8 6 5 5 4 4 4 4 4 5 5 5 5 7 7 5 4 3 3 7 48 67 43 53 90 97 97 34 88 36 23 27 13 10 10 13 33 30
14 12 10 9 9 8 7 6 5 4 4 3 3 4 4 4 4 4 5 5 6 7 7 5 4 5 7 40 60 54 58 93 96 90 71 56 35 38 29 18 9 8 10 19 44
13 10 8 7 6 5 4 4 3 3 2 2 2 2 2 3 3 4 4 5 7 7 7 7 5 9 13 13 38 73 71 78 98 98 93 65 36 51 31 23 14 10 9 18 29
14 13 9 7 6 5 4 3 3 3 3 3 3 3 3 3 3 2 3 4 6 10 9 8 8 17 20 11 45 66 77 61 67 95 96 85 58 52 79 42 19 15 8 12 20
11 13 10 8 7 7 6 3 3 3 3 3 3 3 4 4 4 4 4 4 7 12 13 13 10 16 37 15 41 68 69 68 53 80 97 88 73 72 74 70 24 17 14 9 14
12 12 10 9 7 7 6 4 3 4 4 4 4 3 5 5 5 6 7 7 7 13 20 20 14 11 37 44 25 21 26 55 64 95 97 96 88 95 92 89 25 18 17 15 8
14 12 12 10 6 6 4 4 4 4 4 4 4 5 6 10 9 11 11 13 11 18 24 23 20 15 29 46 20 19 17 24 51 97 97 97 93 81 79 81 38 21 17 18 15
19 16 13 9 7 5 6 5 5 4 4 4 4 4 6 8 10 14 16 17 17 18 29 27 26 21 17 27 14 25 18 48 66 89 97 96 79 77 71 62 42 24 19 19 20
17 19 17 12 7 6 6 6 6 5 5 5 5 5 5 5 9 10 18 25 24 23 32 31 37 28 23 19 17 31 66 70 80 84 95 97 96 86 87 98 80 21 24 20 22
19 23 20 12 8 6 8 6 6 5 7 6 5 6 5 4 7 18 25 32 29 26 30 30 32 35 29 25 21 36 56 34 72 82 83 87 97 90 97 98 61 34 24 26 21
13 27 27 13 8 8 8 7 6 6 6 6 6 6 5 5 16 26 28 34 34 32 27 27 26 25 36 39 43 44 37 97 63 73 79 87 93 92 96 97 61 33 30 25 23
13 25 28 12 9 8 8 8 6 7 8 6 6 6 6 12 28 35 33 31 37 35 28 25 27 25 35 41 41 53 86 77 72 59 74 73 89 93 87 97 97 76 48 27 24
22 27 23 16 10 10 9 8 8 7 7 6 6 6 14 39 42 38 28 23 29 28 18 23 25 26 42 43 43 48 80 79 78 91 80 80 93 91 94 94 95 95 87 26 26
18 33 35 21 13 10 10 10 12 8 6 7 6 8 30 41 49 51 52 24 16 23 20 21 24 24 45 46 46 51 57 50 68 79 88 99 99 92 87 88 81 79 94 50 20
11 21 36 27 20 10 10 12 13 10 6 7 7 14 34 49 52 47 50 34 18 20 25 25 24 27 58 54 59 58 52 53 47 50 78 97 98 94 80 68 64 76 86 43 20
24 14 21 28 25 15 13 13 13 14 6 5 6 11 32 53 60 63 62 45 27 32 28 28 39 50 64 66 58 63 72 68 90 71 74 99 96 100 97 99 98 93 98 92 59
23 31 25 23 24 19 16 14 14 17 11 5 5 6 9 28 39 56 65 79 59 48 44 35 34 77 81 80 77 64 83 83 96 76 93 96 95 95 95 95 97 96 96 96 96
16 23 34 25 17 23 18 17 17 21 14 5 4 4 5 6 19 43 56 79 82 44 64 57 42 77 83 89 83 71 76 94 95 95 88 96 95 99 95 96 98 94 96 94 89
17 22 25 34 26 22 23 21 19 23 19 12 5 5 5 5 8 10 36 64 66 74 58 67 67 66 73 76 80 68 74 65 93 88 78 69 87 92 94 93 82 84 92 83 57
13 31 32 28 34 25 25 22 21 27 34 24 13 6 6 6 5 5 6 16 30 56 74 90 78 77 76 70 66 71 74 67 66 68 64 58 73 82 85 95 78 60 68 60 83
12 21 45 44 32 36 29 25 24 30 38 36 19 11 7 7 6 6 6 6 18 32 30 74 80 86 71 86 78 65 61 67 63 48 52 46 55 59 71 85 91 72 66 67 62
12 15 33 58 45 32 39 29 33 34 36 41 42 18 8 8 6 6 6 6 7 21 10 24 41 60 70 84 95 80 73 67 47 47 26 29 42 47 49 69 85 84 70 72 70
14 15 24 58 55 33 38 39 35 39 39 43 47 29 25 16 8 6 5 6 6 7 8 10 33 64 82 74 82 78 65 58 60 95 63 49 39 55 43 38 80 88 94 96 94
Wind_Speed
8 9 9 9 9 7 8 9 10 10 8 7 6 5 6 7 9 9 9 6 5 5 5 4 6 9 8 5 3 4 4 4 6 2 6 6 4 9 15 15 13 10 10 11 12
13 12 13 13 12 11 7 8 9 11 12 11 10 9 7 7 8 9 8 8 7 6 4 4 4 8 8 7 4 3 6 8 2 4 7 5 4 10 14 15 13 11 11 12 13
12 12 13 11 9 6 7 9 10 11 12 13 13 13 11 10 9 9 9 10 9 9 8 6 5 7 8 7 4 3 6 4 6 7 9 7 4 7 13 13 14 11 11 13 12
8 4 4 6 6 8 10 12 12 13 13 14 14 15 14 14 12 10 10 10 12 12 11 9 7 7 8 7 4 4 3 2 12 8 9 9 4 10 12 11 14 12 12 14 14
8 8 7 8 9 11 13 14 15 15 16 16 17 17 19 18 17 16 16 14 15 15 14 13 11 8 9 11 7 6 5 7 14 14 14 9 6 12 11 12 12 13 11 11 13
9 10 10 10 12 14 16 17 17 17 17 18 19 20 21 21 20 20 20 20 19 18 18 17 13 13 11 14 10 10 10 8 7 12 16 16 9 9 9 12 11 13 13 13 12
9 12 12 15 15 16 16 16 15 15 14 14 15 17 20 21 23 22 23 23 22 21 21 20 17 15 14 12 16 14 13 14 14 19 20 16 14 13 12 10 11 13 14 16 13
10 12 13 15 15 15 14 14 13 13 12 11 11 12 16 16 18 21 23 24 25 25 25 24 20 17 18 16 18 19 17 20 20 14 20 18 17 17 13 10 10 11 14 15 13
13 13 14 15 16 14 16 14 13 9 9 9 10 11 10 11 12 13 17 21 24 26 27 25 24 19 19 19 22 19 21 22 24 17 18 21 21 20 15 10 11 11 14 17 16
16 15 15 16 16 16 16 14 13 10 9 10 9 9 10 9 9 10 12 15 17 22 25 24 22 20 19 20 21 25 24 21 22 19 20 27 24 22 16 12 14 14 14 16 16
18 17 17 19 17 17 15 14 11 10 10 10 8 7 7 8 9 10 13 16 18 19 21 22 20 21 21 21 24 24 22 20 19 8 27 29 25 20 21 20 15 15 15 15 15
17 17 21 20 18 16 13 12 11 10 11 10 11 12 9 8 9 9 10 13 16 16 17 20 21 21 19 22 24 25 19 14 12 12 23 26 24 26 27 22 17 19 17 15 14
18 20 22 21 18 15 14 13 12 11 10 12 11 10 10 12 10 10 11 12 15 16 16 21 22 21 19 21 23 23 17 18 14 10 8 23 27 29 30 19 23 22 20 17 18
18 19 22 20 17 16 14 15 13 12 11 14 12 9 8 11 13 10 9 10 13 15 18 22 21 22 19 20 22 20 15 20 16 13 8 18 25 32 28 20 29 25 21 20 19
19 18 21 19 18 15 15 15 13 13 14 15 15 15 14 11 11 6 7 9 12 15 18 21 24 22 19 20 21 21 25 14 20 17 15 9 8 21 33 21 29 26 24 23 23
18 16 19 16 16 15 15 13 12 13 12 13 14 16 14 14 12 8 7 9 11 13 16 22 23 20 20 23 24 22 16 17 12 13 13 11 9 9 13 16 27 33 31 28 25
18 15 17 16 15 14 13 11 12 11 11 11 13 14 12 11 10 8 4 7 13 14 18 23 21 21 22 22 23 21 16 14 11 12 12 10 10 12 18 19 25 28 30 32 27
18 17 17 17 14 13 12 11 11 10 9 10 10 10 7 7 7 7 7 5 10 16 19 20 18 19 21 22 19 18 12 12 16 16 11 10 15 14 17 26 22 23 31 34 31
17 17 16 16 16 14 13 12 12 9 9 10 9 8 4 4 7 7 8 6 10 15 17 17 17 17 20 22 21 18 15 14 17 16 16 12 15 16 17 20 29 32 30 35 34
18 17 16 16 16 13 12 11 10 9 8 9 8 6 5 4 6 8 8 7 13 16 18 19 19 18 21 23 20 22 20 18 14 12 14 20 14 9 9 11 12 35 39 29 31
19 19 17 15 15 12 12 12 10 7 8 9 6 4 4 5 7 6 7 7 9 16 19 20 23 22 20 22 22 23 20 19 17 15 15 6 7 10 11 7 9 22 23 21 26
19 19 18 15 15 14 13 10 10 7 8 10 9 6 4 5 6 7 7 10 8 12 18 19 24 26 25 24 24 24 23 20 16 15 19 15 7 6 4 6 6 11 4 5 8
21 20 18 18 17 15 14 11 11 9 9 10 13 11 9 6 6 8 10 10 10 13 16 19 22 27 30 30 29 28 28 27 23 21 18 19 17 13 11 9 6 5 7 8 13
24 21 21 20 18 16 15 14 10 10 12 13 12 13 12 10 8 8 9 12 14 16 17 20 24 28 29 32 31 28 31 31 28 27 25 24 22 20 17 15 12 12 9 8 6
26 23 22 22 21 18 18 17 13 10 12 14 14 13 13 12 13 12 11 11 12 14 20 22 28 28 32 29 33 30 31 30 31 31 29 27 25 26 26 21 16 16 12 12 9
29 28 26 25 24 21 19 17 16 13 14 17 15 13 14 15 14 14 14 14 13 14 14 21 26 28 27 35 32 37 37 32 32 30 32 28 27 27 27 25 21 16 17 13 9
29 29 28 28 24 23 21 19 18 15 14 17 18 14 14 12 13 15 16 16 15 12 13 15 20 27 27 29 38 40 41 42 37 31 30 29 30 28 26 25 20 18 20 14 12
Wind_Direction
286 290 291 297 302 310 317 313 309 305 303 297 298 290 273 266 255 248 248 255 259 257 259 285 266 246 237 234 242 344 317 48 98 195 169 174 150 107 102 96 101 104 101 109 108
276 270 273 284 290 283 284 304 310 301 289 287 280 280 283 275 265 259 252 246 246 256 255 252 252 261 239 232 224 300 24 129 131 205 160 184 224 107 100 104 106 100 106 114 115
299 289 294 300 298 273 274 289 291 292 287 277 275 276 277 276 279 268 263 250 242 245 248 236 231 238 243 238 231 298 346 25 156 176 155 212 171 102 96 99 106 104 115 118 118
326 319 322 311 289 279 276 278 276 279 274 270 268 267 265 261 271 267 260 251 242 237 240 241 231 233 226 207 233 250 295 315 172 191 167 177 174 116 106 103 112 115 119 121 123
331 303 292 287 290 291 286 283 281 278 274 268 265 265 264 265 266 260 256 257 254 242 236 241 233 228 218 187 224 226 242 283 184 197 180 189 152 132 120 116 114 114 120 120 117
353 339 321 304 292 289 288 286 284 285 278 271 266 262 263 269 265 260 257 255 252 249 243 241 233 221 222 195 205 221 214 231 169 189 193 175 173 151 139 130 123 120 125 121 123
332 326 318 313 310 304 300 298 295 291 285 283 280 274 268 262 260 261 261 258 254 251 249 244 238 234 217 210 210 219 225 229 254 251 197 166 172 182 145 145 136 129 126 132 137
317 317 318 320 321 318 310 302 292 289 287 283 285 280 270 267 262 261 263 263 260 255 250 246 237 235 221 210 210 223 231 239 244 270 190 168 175 189 170 156 156 146 134 134 142
324 313 317 317 312 313 311 302 295 289 295 292 302 294 278 271 264 259 259 261 256 251 249 248 241 230 227 222 214 224 231 239 244 243 214 179 185 192 187 185 175 170 146 143 148
334 328 327 323 318 312 309 304 303 304 308 318 322 313 305 291 273 266 254 253 255 252 248 244 241 236 224 228 228 230 235 242 247 237 202 185 188 187 203 184 188 181 172 154 154
338 337 326 325 328 326 319 317 311 318 331 330 331 338 321 301 294 282 263 254 250 244 242 240 238 235 220 226 235 238 236 240 247 187 186 178 187 189 197 200 204 189 189 165 157
332 332 332 338 335 330 329 324 328 331 342 340 332 323 320 314 299 292 274 252 246 243 238 232 229 233 224 229 238 247 237 243 237 246 199 203 198 198 197 200 201 195 198 175 160
335 334 339 343 343 336 336 335 339 345 341 334 331 342 336 317 307 293 273 247 240 232 224 226 226 228 220 221 229 246 231 218 218 225 218 206 205 207 200 191 203 197 197 185 177
335 338 341 346 345 343 340 340 341 347 342 338 337 346 334 318 317 303 265 250 237 230 217 220 221 226 227 223 228 236 250 238 230 210 202 229 212 216 217 199 191 197 195 199 191
336 333 338 346 347 343 340 338 343 341 339 341 333 335 341 339 340 318 257 242 240 236 217 216 221 217 221 224 227 228 230 243 224 227 232 235 242 217 209 210 194 200 200 205 200
340 336 336 342 345 342 341 336 339 338 339 336 333 331 335 346 355 340 278 240 239 236 229 223 224 218 217 222 224 225 232 242 260 242 252 246 257 224 204 225 208 204 207 208 205
346 345 344 343 344 343 339 335 337 335 341 344 329 323 336 344 350 9 328 239 219 219 220 224 219 217 217 223 228 229 228 239 247 241 245 246 218 219 223 214 193 201 204 202 205
337 338 340 341 345 340 339 340 338 334 335 346 331 321 332 338 352 357 345 303 229 214 218 225 215 216 216 221 225 227 223 227 242 246 235 237 226 213 219 218 213 209 187 200 208
338 334 339 338 340 340 338 342 341 329 329 340 334 328 341 333 330 325 341 277 233 216 213 217 216 214 215 217 216 219 216 218 241 246 243 212 187 211 231 239 226 208 210 195 203
336 331 327 333 337 337 334 332 340 329 320 322 328 321 287 264 286 305 313 295 243 218 214 214 216 211 215 220 216 213 207 211 220 225 243 188 159 144 143 183 178 186 194 192 203
324 330 325 325 331 328 328 332 332 329 321 292 305 311 283 243 270 271 276 289 271 230 210 211 212 213 212 220 213 218 214 211 220 208 198 135 133 149 114 108 151 187 183 178 195
318 316 321 314 323 320 319 322 330 326 319 282 267 253 252 262 248 244 244 256 268 234 221 211 215 217 213 219 221 226 227 218 209 199 218 226 178 194 211 131 132 163 151 189 243
308 309 306 310 307 310 307 314 329 318 296 290 266 258 261 250 266 262 240 241 252 253 229 225 222 229 228 226 228 230 235 231 226 218 221 224 221 216 218 254 207 242 260 268 292
299 301 300 296 299 298 298 305 313 308 291 284 276 264 260 261 263 277 266 247 250 248 231 224 226 230 238 237 237 235 236 239 240 238 231 228 202 208 215 223 248 242 242 271 312
291 292 292 292 286 288 288 293 293 284 282 275 276 273 272 266 267 266 264 262 254 248 241 233 232 231 234 241 244 242 240 238 241 244 242 231 223 217 217 218 224 236 252 255 266
283 283 286 287 273 274 278 280 280 281 290 279 274 273 263 268 267 265 258 260 266 255 255 246 238 241 243 235 240 246 244 248 252 250 241 241 230 225 219 222 221 224 225 221 241
280 277 281 285 266 263 270 273 270 274 282 281 274 270 262 265 262 265 263 257 250 252 258 250 245 240 238 242 242 244 248 251 252 247 251 245 240 237 233 228 221 228 233 227 214